Weather History for KGYY - June, 2014

Change the Weather History Date:

Thursday, June 19, 2014

  Actual Average Record
Temperature  
Mean Temperature 68 °F -  
Max Temperature 78 °F 84 °F 97 °F (1954)
Min Temperature 60 °F 59 °F 47 °F (1950)
Cooling Degree Days 4    
Growing Degree Days 18 (Base 50)    
Moisture  
Dew Point 64 °F    
Average Humidity 91    
Maximum Humidity 100    
Minimum Humidity 74    
Precipitation  
Precipitation 0.14 in - - ()
Sea Level Pressure  
Sea Level Pressure 30.06 in    
Wind  
Wind Speed 6 mph (NNE)    
Max Wind Speed 13 mph    
Max Gust Speed -    
Visibility 5 miles    
Events Fog , Rain , Thunderstorm    
Averages and records for this station are not official NWS values.
T = Trace of Precipitation, MM = Missing Value Source: NWS Daily Summary

Daily Weather History Graph

Daily Weather History Graph

Search for Another Location

Airport or City:

Trip Planner

Search our weather history database for the weather conditions in past years. The results will help you decide how hot, cold, wet, or windy it might be!

Date:

Astronomy

Jun. 19, 2014 Rise Set
Actual Time 5:15 AM CDT 8:26 PM CDT
Civil Twilight 4:41 AM CDT 9:01 PM CDT
Nautical Twilight 3:57 AM CDT 9:45 PM CDT
Astronomical Twilight 3:04 AM CDT 10:37 PM CDT
Moon 12:25 AM CDT (6/19) 12:50 PM CDT (6/19)
Length of Visible Light 16h 20m
Length of Day
15h 11m
Waning Gibbous, 51% of the Moon is Illuminated
Jun 19
Waning Gibbous
Jun 19
Last Quarter
Jun 27
New
Jul 5
First Quarter
Jul 12
Full

Hourly Weather History & Observations

Time (CDT) Temp. Dew Point Humidity Pressure Visibility Wind Dir Wind Speed Gust Speed Precip Events Conditions
12:15 AM 61.9 °F 60.1 °F 94% 30.02 in 4.0 mi NNW 6.9 mph - 0.01 in   Mostly Cloudy
12:35 AM 62.2 °F 60.8 °F 95% 30.03 in 4.0 mi North 5.8 mph - 0.01 in Thunderstorm Overcast
12:55 AM 61.9 °F 60.3 °F 94% 30.04 in 3.0 mi NNW 5.8 mph - 0.01 in Rain , Thunderstorm Light Thunderstorms and Rain
1:15 AM 61.9 °F 60.3 °F 94% 30.04 in 4.0 mi Calm Calm - 0.05 in Rain , Thunderstorm Light Thunderstorms and Rain
1:35 AM 61.9 °F 60.3 °F 94% 30.03 in 4.0 mi North 3.5 mph - 0.05 in   Light Drizzle
1:55 AM 61.7 °F 60.1 °F 94% 30.02 in 4.0 mi NNE 6.9 mph - 0.05 in   Scattered Clouds
2:15 AM 61.2 °F 59.7 °F 95% 30.02 in 7.0 mi NE 3.5 mph - N/A   Mostly Cloudy
2:35 AM 61.3 °F 59.9 °F 95% 30.03 in 7.0 mi North 3.5 mph - N/A   Overcast
2:55 AM 61.5 °F 59.9 °F 94% 30.02 in 10.0 mi NNE 5.8 mph - N/A   Overcast
3:15 AM 61.0 °F 59.4 °F 94% 30.03 in 7.0 mi North 6.9 mph - N/A   Overcast
3:35 AM 60.4 °F 59.0 °F 95% 30.04 in 7.0 mi North 5.8 mph - N/A   Overcast
3:55 AM 60.8 °F 59.0 °F 94% 30.03 in 5.0 mi North 6.9 mph - N/A   Overcast
4:15 AM 60.3 °F 58.6 °F 94% 30.05 in 5.0 mi NNE 4.6 mph - N/A   Overcast
5:45 AM 60.8 °F 59.0 °F 94% - 1.0 mi North 6.9 mph - N/A   Overcast
6:45 AM 60.8 °F 59.0 °F 94% 30.11 in 0.2 mi North 6.9 mph - N/A Fog Fog
7:45 AM 60.8 °F 59.0 °F 94% 30.10 in 0.2 mi North 6.9 mph - N/A Fog Fog
8:45 AM 62.6 °F 62.6 °F 100% 30.10 in 2.0 mi North 6.9 mph - N/A   Overcast
9:45 AM 64.4 °F 62.6 °F 94% 30.10 in 2.0 mi Calm Calm - N/A   Overcast
10:03 AM 66.2 °F 64.4 °F 94% 30.10 in 3.0 mi North - - N/A   Overcast
10:45 AM 69.8 °F 64.4 °F 83% 30.10 in 3.0 mi North 9.2 mph - N/A   Overcast
12:45 PM 77.0 °F 68.0 °F 74% 30.09 in - North - - N/A   Haze
2:45 PM 73.4 °F 66.2 °F 78% 30.06 in 7.0 mi North 4.6 mph - N/A   Mostly Cloudy
4:45 PM 73.4 °F 66.2 °F 78% 30.04 in 7.0 mi NNE 5.8 mph - N/A   Mostly Cloudy
5:20 PM 71.6 °F 66.2 °F 83% 30.06 in 3.0 mi NNW 8.1 mph - N/A Rain Rain
5:45 PM 71.6 °F 68.0 °F 88% 30.03 in 5.0 mi East 12.7 mph - N/A Rain Light Rain
6:45 PM 73.4 °F 68.0 °F 83% 30.02 in 10.0 mi ESE 11.5 mph - N/A   Mostly Cloudy
7:45 PM 73.4 °F 68.0 °F 83% 30.05 in 10.0 mi ESE 12.7 mph - N/A   Overcast
8:00 PM 71.6 °F 68.0 °F 88% 30.07 in 10.0 mi WSW 6.9 mph - N/A   Overcast
8:45 PM 71.6 °F 69.8 °F 94% 30.07 in 5.0 mi SSW 11.5 mph - N/A Rain Rain
9:15 PM 72.5 °F 70.0 °F 92% 30.07 in 7.0 mi Calm Calm - 0.01 in Rain , Thunderstorm Rain
9:35 PM 72.1 °F 70.0 °F 93% 30.07 in 7.0 mi ESE 3.5 mph - 0.03 in Rain Rain
9:55 PM 71.6 °F 69.8 °F 94% 30.07 in 7.0 mi Calm Calm - 0.05 in Rain Rain
10:15 PM 71.6 °F 69.8 °F 94% 30.06 in 7.0 mi Calm Calm - 0.01 in Rain , Thunderstorm Light Thunderstorms and Rain
10:35 PM 71.1 °F 69.3 °F 94% 30.06 in 10.0 mi Calm Calm - 0.02 in Rain Light Rain
11:15 PM 71.6 °F 69.8 °F 94% 30.06 in 7.0 mi Calm Calm - 0.01 in Rain Light Rain
11:35 PM 70.9 °F 69.1 °F 94% 30.05 in 4.0 mi NE 4.6 mph - 0.01 in Rain Light Rain
11:55 PM 70.7 °F 68.9 °F 94% 30.05 in 5.0 mi NNE 3.5 mph - 0.01 in   Light Drizzle